Miscellaneous Local Product
Issued by NWS Hastings, NE

Home | Current Version | Previous Version | Graphics & Text | Print | Product List | Glossary On
Versions: 1 2 3 4 5 6 7 8 9 10 11 12 13 14 15 16 17 18 19 20 21 22 23 24 25 26 27 28 29 30 31 32 33 34 35 36 37 38 39 40 41 42 43 44 45 46 47 48 49 50
000
AXUS43 KGID 270402
MISGRI

GID CWA HOURLY WEATHER ROUNDUP
NATIONAL WEATHER SERVICE HASTINGS NE
1100 PM CDT SUN JUL 26 2015

NOTE: "FAIR" INDICATES FEW OR NO CLOUDS BELOW 12,000 FEET WITH NO
SIGNIFICANT WEATHER AND/OR OBSTRUCTIONS TO VISIBILITY.

...SOUTH CENTRAL NEBRASKA...

CITY           SKY/WX    TMP DP  RH WIND       PRES   REMARKS
GRAND ISLAND   CLOUDY    79  77  94 SE7       29.91F
HASTINGS       CLOUDY    82  73  74 MISG      29.91R
KEARNEY        CLOUDY    81  73  78 CALM      29.93R
ORD            CLOUDY    80  76  87 SE5       29.92R
YORK           CLOUDY    77  77 100 E3        29.91R
AURORA         CLOUDY    78  78 100 E5        29.90F
LEXINGTON      CLOUDY    74  65  73 NW12      30.02R
HOLDREGE       CLOUDY    77  72  84 N3        29.93R
HEBRON         CLOUDY    79  73  80 SE3       29.89R

...NEBRASKA PANHANDLE...

CITY           SKY/WX    TMP DP  RH WIND       PRES   REMARKS
CHADRON        CLEAR     76  54  46 S20G31    29.88R
ALLIANCE       MOCLDY    68  57  68 SE14      29.96R
SCOTTSBLUFF    CLEAR     69  59  70 MISG      29.95R
SIDNEY         CLOUDY    64  61  90 SE8       30.01S

...WESTERN AND NORTH CENTRAL NEBRASKA...

CITY           SKY/WX    TMP DP  RH WIND       PRES   REMARKS
VALENTINE      CLOUDY    72  63  73 S12       29.89F
AINSWORTH      CLOUDY    74  64  70 SE17G23   29.92R
ONEILL         CLOUDY    79  74  86 SE5       29.90F
BROKEN BOW     TSTM      71  65  81 W10G23    29.96S
IMPERIAL       CLOUDY    69  62  78 SW7       29.96R
NORTH PLATTE   CLOUDY    69  62  78 E16G26    29.92F
MCCOOK         RAIN      69  66  90 E15       29.98F

...EASTERN NEBRASKA...

CITY           SKY/WX    TMP DP  RH WIND       PRES   REMARKS
NORFOLK        CLOUDY    79  76  90 E6        29.89F
SO SIOUX CITY  CLOUDY    80  73  79 E6        29.90R
TEKAMAH        PTCLDY    78  76  93 CALM      29.88R
COLUMBUS       MOCLDY    77  72  83 E3        29.89F
ALBION         CLOUDY    78  74  86 SE5       29.90F
OMAHA EPPLEY   MOCLDY    82  77  84 SE5       29.89R HX  90
OFFUTT AFB     PTCLDY    79  76  92 E5        29.88R
MILLARD        PTCLDY    82  77  84 SE5       29.89R HX  91
LINCOLN        PTCLDY    85  78  80 E7        29.89R HX  96
BEATRICE       PTCLDY    82  76  82 E3        29.89R
FALLS CITY     CLEAR     80  78  94 E3        29.88R

...NORTHERN KANSAS...

CITY           SKY/WX    TMP DP  RH WIND       PRES   REMARKS
GOODLAND       CLOUDY    66  62  87 SE17      30.00F
HILL CITY      TSTM      70  66  87 NW26G35   29.99R
NORTON         LGT RAIN  68  63  83 W12       30.03R
SMITH CENTER   CLEAR     79  72  78 S5        29.92R
HAYS           CLOUDY    84  66  54 NW23G29   29.97R
RUSSELL        MOCLDY    84  70  62 S12       29.89R
CONCORDIA      MOCLDY    78  74  87 SE8       29.88R
SALINA         CLEAR     83  71  67 S7        29.88R
TOPEKA         CLEAR     82  77  84 CALM      29.88R HX  90



USA.gov is the U.S. government's official web portal to all federal, state and local government web resources and services.